Wind_Speed
27 35 40 34 33 27 25 29 30 30 29 29 28 26 25 23 21 21 20 19 16 18 15 11 14 13 12 12 11 8 9 12 12 12 14 13 11 12 9 9 10 6 8
31 35 41 40 38 32 28 29 29 30 30 30 29 26 25 24 22 21 23 22 19 19 14 14 15 14 10 9 9 10 12 13 13 13 14 13 13 13 10 9 9 9 9
38 33 38 43 44 37 35 28 28 30 32 32 32 29 27 27 27 25 22 22 20 20 15 15 14 11 8 9 10 11 12 12 15 12 14 14 12 13 9 9 9 8 10
42 36 35 44 50 43 43 37 31 32 36 35 35 33 33 32 29 23 21 22 21 19 16 15 14 11 10 10 12 13 13 13 14 13 15 14 13 12 12 11 12 11 11
44 40 36 38 47 46 45 43 37 35 37 37 36 35 35 33 27 25 24 23 22 20 18 16 15 14 13 13 14 14 15 13 14 14 16 15 15 15 11 13 13 13 13
47 46 39 33 42 46 46 46 42 37 38 39 38 38 38 36 32 29 25 24 22 20 18 18 17 16 15 15 15 17 17 16 15 15 16 16 17 17 14 14 13 14 14
47 49 41 37 38 50 47 44 41 41 43 46 43 41 40 36 33 31 27 25 23 21 21 21 19 18 17 15 15 17 18 18 17 16 16 16 17 18 17 16 14 15 15
47 48 44 38 36 41 43 47 44 41 43 46 44 41 39 35 33 32 29 25 22 21 22 21 21 22 20 19 18 18 19 19 18 19 17 17 16 18 20 18 17 17 17
50 49 41 36 44 46 49 49 47 40 43 45 44 42 42 38 35 34 28 26 22 17 16 18 21 24 20 19 16 19 21 23 22 20 17 17 18 18 23 20 19 18 18
50 45 33 34 35 46 50 37 44 43 42 42 44 42 42 40 39 39 35 37 19 16 18 19 19 19 17 21 24 25 31 27 26 31 22 21 25 21 23 19 23 21 21
39 44 40 39 44 35 54 40 53 47 47 49 49 43 42 41 41 40 34 24 22 21 22 29 26 22 18 26 25 23 26 31 37 35 33 31 23 23 19 18 24 25 24
38 36 39 37 31 28 24 36 35 45 44 53 52 45 44 42 40 40 36 28 28 28 25 35 28 31 31 26 25 24 24 31 36 36 38 29 21 20 17 22 23 24 24
39 32 33 33 31 25 21 23 35 28 43 48 53 48 49 47 44 39 34 33 35 37 34 34 32 29 27 28 21 21 24 22 23 34 26 25 20 17 17 20 22 23 24
34 36 29 28 24 24 25 24 26 33 38 47 46 22 40 17 31 30 37 31 38 38 35 29 26 29 28 20 15 15 19 25 21 26 23 19 17 14 17 24 24 25 24
25 29 22 22 28 30 31 31 33 36 37 35 35 25 17 23 27 12 24 45 41 32 23 20 27 27 27 18 17 16 13 11 15 26 33 27 24 27 24 24 24 27 25
17 22 21 19 24 29 33 39 39 39 38 31 29 30 30 28 26 26 28 30 26 33 29 30 32 27 20 17 19 18 19 15 8 11 21 23 24 26 23 22 23 23 25
16 16 17 18 19 22 27 29 28 30 30 30 30 29 33 34 35 37 36 35 35 32 32 31 30 27 21 21 20 21 21 14 11 15 18 22 20 19 22 22 22 23 24
17 17 16 17 18 19 21 24 24 23 22 23 24 23 24 27 32 35 35 33 32 32 33 31 30 28 23 23 21 22 23 20 16 17 22 22 22 22 22 21 23 23 24
14 14 17 16 18 21 21 24 26 24 22 20 20 20 20 20 20 22 23 26 30 32 33 32 33 30 27 25 22 22 24 23 20 20 22 22 22 22 23 23 24 23 25
9 7 11 13 13 16 19 19 20 22 23 22 19 18 18 17 16 17 17 18 22 27 33 35 31 25 27 24 26 25 26 28 24 22 20 20 21 22 25 25 24 24 25
4 4 6 8 8 10 13 15 16 16 18 20 22 21 19 20 19 18 17 17 17 20 26 32 35 32 31 28 27 25 27 26 26 26 22 20 22 25 28 27 25 24 28
8 3 3 9 7 9 12 14 13 14 16 16 20 20 19 19 20 20 19 18 17 18 20 23 29 32 34 31 32 29 31 30 28 30 26 25 25 28 28 27 25 26 28
14 10 5 7 11 8 9 12 13 13 14 14 15 18 19 18 16 18 19 19 20 20 21 22 21 24 26 27 32 31 30 34 29 32 29 29 29 28 28 28 29 28 28
5 12 15 14 13 11 11 12 13 15 15 15 17 18 19 20 20 18 18 19 19 20 23 24 24 27 24 24 26 28 31 34 36 31 33 30 31 35 28 28 31 30 29
15 10 13 17 18 20 19 17 16 16 17 19 18 18 20 20 22 23 23 22 22 23 25 26 27 29 29 26 28 27 32 35 37 39 38 35 32 31 26 28 31 32 31
22 21 18 17 18 21 24 24 22 19 21 22 23 20 22 22 22 23 25 25 25 27 28 29 30 32 32 32 32 33 35 37 41 44 46 41 41 34 30 28 32 34 36
Wind_Direction
231 218 212 215 214 213 208 213 209 204 200 196 199 198 196 195 197 193 197 205 197 206 211 200 206 205 208 223 246 280 288 293 304 289 297 297 296 301 299 291 298 297 302
224 221 215 209 217 211 212 206 212 211 211 203 205 202 204 205 207 199 200 206 197 215 204 199 208 215 211 242 264 276 286 294 298 294 298 299 308 308 276 268 279 293 305
222 225 222 211 215 219 223 207 208 210 220 210 208 203 202 208 210 210 202 201 201 212 205 209 220 228 229 241 264 278 289 294 298 297 292 295 306 302 278 275 273 285 297
222 231 235 221 215 219 224 222 205 209 217 215 215 210 209 213 217 211 203 202 202 211 215 210 223 231 238 256 268 280 291 295 294 286 287 288 293 282 269 271 279 286 291
218 229 234 231 227 223 221 226 217 212 215 215 218 219 212 214 215 209 204 207 206 211 218 221 225 238 243 251 264 275 284 287 287 289 284 291 291 286 269 262 272 280 287
226 231 232 237 229 228 222 227 225 216 210 218 218 222 222 215 208 205 207 212 214 222 229 230 231 239 251 259 267 276 282 287 288 287 287 286 283 281 272 266 262 273 282
221 220 220 225 227 224 223 226 225 214 208 213 212 220 227 225 221 209 204 207 217 224 231 238 241 246 253 257 265 273 277 284 288 286 285 282 280 277 275 272 273 272 275
214 223 221 223 224 230 233 227 224 215 214 214 214 214 222 221 225 222 208 200 210 221 229 233 239 244 249 260 269 277 279 277 277 278 279 285 284 280 271 266 268 271 277
209 216 225 234 225 234 228 226 226 221 214 211 210 211 216 217 219 221 212 193 198 207 224 228 236 248 257 264 281 288 276 275 278 280 284 286 278 269 264 269 272 272 274
197 209 208 223 224 224 217 233 232 226 215 211 213 211 213 215 217 219 215 218 213 219 222 236 242 247 262 273 276 292 284 274 272 281 275 280 279 264 260 270 279 276 277
199 203 208 219 217 234 222 219 232 228 225 219 220 218 215 214 220 222 220 217 217 215 231 249 235 244 270 260 268 269 286 281 272 268 270 265 264 256 258 264 274 278 279
202 204 212 227 235 237 242 261 208 207 228 231 229 216 214 212 217 224 226 221 224 223 244 246 247 247 264 266 279 274 284 280 275 264 262 252 261 260 271 269 268 276 287
211 217 214 213 215 224 238 249 263 244 229 242 225 223 217 223 223 228 229 232 242 248 235 241 246 251 258 262 254 269 270 274 292 270 253 256 250 261 268 267 274 273 276
219 226 229 223 220 222 223 228 228 234 234 233 232 251 223 238 233 236 226 226 231 228 234 239 250 258 267 246 274 280 271 280 265 243 235 230 238 250 260 262 273 273 273
217 226 225 214 218 207 214 218 222 230 237 240 251 248 258 233 238 247 238 226 219 236 240 233 242 248 253 256 258 277 274 261 249 252 241 239 236 241 252 259 265 268 271
204 213 213 203 204 210 211 215 218 224 238 235 234 234 237 237 237 234 237 240 239 236 239 237 247 245 250 244 261 276 266 266 248 269 260 252 248 260 264 264 263 268 276
189 189 191 194 200 205 213 217 222 222 224 227 230 229 232 232 235 241 237 233 234 237 234 237 241 244 244 241 254 272 256 257 230 253 258 261 263 269 270 272 268 270 274
188 174 170 176 179 185 198 203 210 215 215 216 221 223 224 227 230 236 240 240 239 231 231 236 241 243 243 242 252 262 248 253 259 265 270 272 274 275 274 274 274 275 275
191 170 156 166 173 181 189 201 205 212 215 211 208 209 211 213 215 217 221 226 229 229 228 233 236 240 243 239 251 260 245 252 262 274 275 275 274 275 277 278 276 277 277
204 195 155 156 171 181 183 189 196 199 196 203 205 208 209 208 209 210 210 215 218 221 219 228 236 242 232 249 256 260 255 256 269 283 277 271 273 276 279 278 278 279 277
166 210 227 189 183 198 185 184 184 193 202 202 197 201 209 213 217 218 220 223 219 218 219 225 232 235 232 241 246 260 258 257 276 275 276 268 272 275 277 278 280 275 268
110 55 270 264 226 218 223 204 202 205 207 209 213 207 206 213 214 217 221 227 235 238 235 231 228 235 240 244 239 263 251 263 265 271 271 274 274 273 275 278 275 268 271
224 165 190 269 263 253 249 244 229 222 228 228 236 230 221 216 219 226 227 229 234 241 249 249 243 232 240 244 245 254 264 254 272 270 275 274 279 273 279 285 283 276 278
319 287 233 221 246 257 259 263 257 256 241 238 241 249 251 244 241 238 238 241 243 246 250 255 259 256 242 241 249 259 260 267 274 268 269 273 281 275 281 284 285 284 278
222 225 272 278 261 257 259 257 260 256 257 256 244 250 252 254 253 250 251 250 249 250 253 255 257 261 259 256 243 252 259 264 262 263 268 265 271 271 279 285 284 281 276
245 235 240 254 264 259 255 250 248 250 256 259 261 255 256 255 258 259 258 257 256 255 254 255 256 257 259 257 247 242 249 254 262 266 268 263 267 260 269 272 278 280 276
Height
3089 3091 3093 3096 3099 3105 3110 3114 3120 3122 3125 3129 3133 3137 3141 3144 3148 3152 3155 3157 3160 3161 3164 3168 3169 3172 3173 3175 3175 3174 3176 3176 3177 3175 3174 3173 3173 3173 3172 3171 3170 3171 3170
3081 3085 3088 3092 3092 3099 3105 3109 3114 3120 3122 3126 3130 3135 3139 3142 3145 3148 3152 3155 3159 3159 3164 3165 3167 3168 3171 3172 3172 3173 3173 3174 3173 3172 3171 3170 3171 3170 3170 3170 3169 3168 3168
3073 3077 3082 3085 3085 3090 3098 3103 3108 3114 3117 3122 3125 3130 3134 3137 3139 3142 3147 3152 3156 3157 3161 3163 3164 3166 3168 3169 3170 3170 3170 3171 3170 3170 3169 3167 3168 3167 3167 3167 3167 3167 3166
3066 3070 3074 3077 3078 3085 3091 3098 3102 3105 3110 3114 3117 3121 3126 3129 3133 3139 3144 3148 3152 3154 3157 3160 3161 3163 3165 3166 3167 3167 3167 3168 3167 3167 3165 3165 3165 3164 3165 3165 3164 3164 3164
3057 3062 3068 3072 3072 3080 3087 3090 3096 3100 3106 3111 3115 3117 3119 3122 3129 3135 3140 3143 3147 3149 3152 3156 3158 3159 3161 3163 3163 3163 3163 3163 3163 3163 3162 3161 3161 3160 3161 3161 3162 3161 3160
3050 3056 3063 3067 3068 3072 3081 3085 3090 3096 3100 3105 3111 3114 3117 3118 3120 3126 3133 3138 3143 3146 3149 3151 3153 3155 3157 3159 3160 3160 3160 3160 3159 3158 3158 3158 3157 3157 3157 3158 3158 3158 3157
3044 3047 3053 3059 3066 3067 3076 3081 3084 3090 3093 3099 3101 3108 3113 3117 3120 3121 3126 3131 3136 3140 3143 3146 3149 3151 3153 3155 3157 3157 3157 3156 3155 3156 3155 3154 3154 3152 3153 3153 3154 3154 3154
3034 3039 3045 3053 3063 3067 3070 3073 3078 3083 3088 3092 3097 3102 3108 3112 3115 3119 3121 3124 3129 3134 3137 3141 3144 3146 3147 3149 3152 3153 3152 3151 3150 3150 3150 3150 3149 3149 3148 3149 3150 3150 3150
3027 3032 3039 3048 3050 3059 3063 3066 3073 3079 3085 3088 3090 3095 3101 3104 3108 3112 3117 3119 3123 3127 3131 3135 3138 3141 3143 3144 3146 3147 3148 3147 3147 3146 3145 3145 3144 3145 3143 3143 3145 3146 3146
3020 3025 3031 3037 3041 3048 3055 3061 3069 3075 3080 3085 3088 3091 3094 3098 3100 3103 3109 3113 3117 3121 3124 3128 3132 3136 3138 3139 3140 3141 3142 3142 3142 3141 3139 3140 3142 3140 3139 3136 3138 3140 3141
3014 3020 3026 3032 3039 3044 3050 3056 3060 3070 3074 3079 3081 3083 3087 3091 3093 3095 3100 3105 3109 3113 3117 3123 3125 3128 3128 3132 3133 3135 3136 3135 3134 3133 3132 3133 3135 3135 3134 3132 3134 3133 3134
3006 3012 3019 3025 3030 3036 3038 3038 3023 3052 3063 3068 3071 3073 3079 3084 3088 3089 3094 3098 3102 3106 3109 3116 3117 3120 3125 3126 3127 3128 3127 3127 3126 3125 3125 3125 3127 3129 3128 3130 3130 3128 3128
3005 3009 3016 3020 3024 3029 3032 3037 3036 3037 3040 3056 3053 3063 3070 3076 3079 3082 3085 3090 3093 3100 3103 3108 3110 3114 3118 3118 3119 3119 3118 3118 3117 3117 3117 3119 3122 3125 3125 3126 3124 3124 3125
2999 3004 3010 3018 3021 3028 3033 3035 3035 3038 3045 3050 3032 3041 3059 3053 3069 3062 3070 3077 3085 3092 3097 3101 3104 3108 3110 3112 3113 3112 3111 3109 3108 3109 3113 3114 3117 3120 3121 3120 3120 3120 3121
2994 2999 3004 3011 3017 3022 3029 3033 3035 3037 3040 3042 3039 3038 3043 3047 3058 3055 3059 3054 3066 3080 3086 3090 3096 3101 3104 3106 3106 3106 3105 3103 3102 3105 3107 3108 3111 3111 3112 3115 3115 3113 3115
2992 2994 2998 3003 3009 3016 3022 3028 3031 3033 3037 3040 3040 3040 3044 3047 3050 3057 3062 3065 3070 3077 3082 3085 3089 3094 3096 3097 3099 3101 3101 3101 3099 3102 3106 3108 3109 3110 3109 3110 3110 3110 3108
2990 2992 2995 2998 3002 3008 3014 3020 3023 3029 3031 3031 3031 3033 3038 3043 3047 3051 3055 3060 3064 3069 3074 3078 3083 3086 3090 3091 3093 3094 3095 3097 3097 3100 3102 3104 3103 3103 3104 3104 3105 3104 3105
2989 2994 2997 2998 2998 3001 3006 3012 3015 3018 3022 3025 3027 3030 3034 3037 3042 3045 3047 3050 3054 3060 3066 3071 3076 3079 3083 3085 3087 3088 3089 3092 3093 3096 3097 3098 3098 3098 3097 3098 3099 3099 3099
2991 2993 2998 2999 2999 3000 3002 3006 3010 3014 3017 3021 3024 3027 3030 3033 3036 3040 3041 3045 3049 3054 3060 3066 3070 3073 3077 3080 3081 3081 3083 3086 3088 3090 3091 3092 3093 3092 3091 3092 3093 3094 3093
2994 2995 2996 2998 3000 3001 3003 3005 3008 3012 3015 3017 3020 3023 3026 3030 3032 3034 3037 3041 3045 3049 3054 3059 3063 3066 3070 3074 3076 3078 3078 3080 3081 3082 3085 3086 3087 3085 3085 3086 3087 3088 3088
2993 2993 2995 2998 2999 3000 3003 3005 3007 3010 3012 3015 3019 3022 3024 3026 3029 3031 3035 3038 3041 3045 3048 3053 3058 3062 3065 3068 3070 3071 3073 3074 3075 3075 3079 3081 3081 3079 3078 3079 3081 3082 3081
2988 2991 2994 2995 2998 2998 2999 3002 3005 3007 3009 3012 3014 3018 3022 3024 3027 3030 3033 3036 3038 3041 3043 3047 3051 3055 3060 3062 3064 3064 3065 3066 3067 3069 3070 3073 3073 3073 3071 3072 3074 3075 3074
2984 2987 2993 2995 2995 2996 2997 2998 3001 3003 3004 3008 3009 3013 3017 3020 3023 3027 3029 3032 3034 3037 3040 3042 3044 3047 3052 3054 3056 3057 3057 3059 3060 3062 3063 3063 3065 3066 3066 3066 3065 3066 3066
2985 2988 2989 2992 2992 2994 2995 2997 2999 2999 3002 3004 3006 3007 3010 3015 3018 3021 3024 3026 3028 3031 3033 3036 3038 3039 3041 3046 3048 3049 3049 3050 3052 3053 3056 3056 3056 3056 3058 3058 3057 3057 3059
2985 2988 2988 2985 2986 2989 2992 2993 2994 2995 2996 2998 3001 3003 3005 3008 3010 3014 3017 3020 3022 3025 3027 3028 3029 3030 3032 3036 3038 3039 3041 3042 3043 3041 3041 3045 3047 3048 3049 3050 3049 3049 3050
2980 2982 2982 2982 2983 2984 2985 2986 2988 2989 2990 2991 2993 2997 2998 3000 3002 3005 3008 3011 3013 3015 3016 3018 3020 3021 3023 3025 3028 3030 3031 3033 3033 3031 3030 3034 3037 3039 3040 3041 3041 3041 3041